VK1ET-13 Weather Reports


time (UTC)temp
F
wind
direction
speed
knots
gust
knots
rain 1hr
in
rain 24hr
in
rain mn
in
humidity
%
barometer
mb
20260905215525 50 279 6.1 9.6 0.00 0.00 0.00 72 1016.3
20260905214531 50 275 4.3 7.0 0.00 0.00 0.00 74 1016.0
20260905213517 49 283 5.2 12.2 0.00 0.00 0.00 74 1015.9
20260905212523 49 282 6.1 10.4 0.00 0.00 0.00 74 1015.7
20260905211531 49 269 5.2 8.7 0.00 0.00 0.00 73 1015.6
20260905210535 49 285 3.5 7.0 0.00 0.00 0.00 73 1015.5
20260905205521 48 275 3.5 7.0 0.00 0.00 0.00 75 1014.8
20260905204527 47 274 4.3 7.0 0.00 0.00 0.00 77 1014.7
20260905203534 47 319 1.7 3.5 0.00 0.00 0.00 79 1015.1
20260905202527 47 10 2.6 6.1 0.00 0.00 0.00 78 1014.9
20260905201533 48 354 3.5 5.2 0.00 0.00 0.00 75 1014.6
20260905200532 48 79 1.7 4.3 0.00 0.00 0.00 75 1014.5
20260905195518 47 62 1.7 2.6 0.00 0.00 0.00 77 1014.5
20260905194524 48 171 1.7 5.2 0.00 0.00 0.00 73 1014.2
20260905193531 49 266 1.7 4.3 0.00 0.00 0.00 72 1014.1
20260905192517 49 252 2.6 4.3 0.00 0.00 0.00 73 1014.0
20260905191525 49 272 4.3 7.8 0.00 0.00 0.00 70 1013.7
20260905190545 49 270 5.2 8.7 0.00 0.00 0.00 71 1013.5
20260905185538 49 269 4.3 7.0 0.00 0.00 0.00 71 1013.6
20260905184523 49 309 4.3 8.7 0.00 0.00 0.00 71 1013.4
20260905183537 49 280 3.5 7.0 0.00 0.00 0.00 72 1013.2
20260905182517 48 234 4.3 8.7 0.00 0.00 0.00 75 1013.1
20260905181525 48 278 2.6 6.1 0.00 0.00 0.00 76 1013.0
20260905180534 49 303 3.5 7.0 0.00 0.00 0.00 75 1013.0
20260905175522 49 237 4.3 6.1 0.00 0.00 0.00 72 1012.7
20260905174531 49 277 2.6 6.1 0.00 0.00 0.00 71 1012.7
20260905173519 49 223 3.5 7.8 0.00 0.00 0.00 70 1012.6
20260905172527 49 243 2.6 7.0 0.00 0.00 0.00 71 1012.4
20260905171536 49 251 5.2 10.4 0.00 0.00 0.00 71 1012.1
20260905170525 49 263 8.7 14.8 0.00 0.00 0.00 71 1011.6
20260905165533 49 265 7.8 13.0 0.00 0.00 0.00 73 1011.2
20260905164521 49 278 8.7 18.2 0.00 0.00 0.00 73 1011.1
20260905163537 49 267 7.0 12.2 0.00 0.00 0.00 75 1011.3
20260905162517 49 293 5.2 11.3 0.00 0.00 0.00 74 1011.6
20260905161523 49 278 5.2 9.6 0.00 0.00 0.00 74 1012.0
20260905160530 49 290 6.1 10.4 0.00 0.00 0.00 74 1011.9
20260905155517 49 277 4.3 7.8 0.00 0.00 0.00 72 1012.0
20260905154523 49 274 6.1 13.0 0.00 0.00 0.00 71 1011.6
20260905153529 49 282 7.0 14.8 0.00 0.00 0.00 71 1011.4
20260905152535 50 272 6.1 11.3 0.00 0.00 0.00 71 1011.8
20260905151521 50 258 7.0 13.9 0.00 0.00 0.00 72 1011.8
20260905150528 50 254 7.0 14.8 0.00 0.00 0.00 73 1011.8
20260905145516 50 254 7.0 12.2 0.00 0.00 0.00 71 1011.6
20260905144525 50 254 7.0 13.0 0.00 0.00 0.00 70 1011.7
20260905143533 50 254 5.2 9.6 0.00 0.00 0.00 71 1011.5
20260905142519 50 259 7.0 13.0 0.00 0.00 0.00 72 1011.3
20260905141524 50 257 8.7 15.6 0.00 0.00 0.00 72 1011.4
20260905140531 51 259 7.0 13.9 0.00 0.00 0.00 70 1011.4
20260905135536 51 273 5.2 11.3 0.00 0.00 0.00 70 1011.1
20260905134521 51 256 4.3 11.3 0.00 0.00 0.00 71 1011.2
20260905133530 50 262 5.2 8.7 0.00 0.00 0.00 72 1011.4
20260905132544 50 248 5.2 9.6 0.00 0.00 0.00 74 1011.3
20260905131522 50 248 5.2 10.4 0.00 0.00 0.00 73 1011.2
20260905130528 50 249 4.3 7.0 0.00 0.00 0.00 75 1011.0
20260905125535 50 254 4.3 7.8 0.00 0.00 0.00 80 1011.4
20260905124522 50 248 5.2 9.6 0.00 0.00 0.00 82 1011.5
20260905123529 52 254 8.7 17.4 0.00 0.00 0.00 75 1011.2
20260905122536 53 257 6.1 11.3 0.00 0.00 0.00 70 1010.8
20260905121521 53 268 5.2 8.7 0.00 0.00 0.00 69 1010.8
20260905120528 53 293 5.2 11.3 0.00 0.00 0.00 70 1010.8
20260905115534 53 283 5.2 10.4 0.00 0.00 0.00 68 1010.6
20260905114518 53 288 3.5 10.4 0.00 0.00 0.00 68 1010.8
20260905113531 54 279 5.2 8.7 0.00 0.00 0.00 66 1010.9
20260905112531 54 276 7.0 12.2 0.00 0.00 0.00 64 1011.0
20260905111517 54 266 6.1 14.8 0.00 0.00 0.00 66 1011.2
20260905110523 54 267 6.1 9.6 0.00 0.00 0.00 66 1011.3
20260905105530 55 263 8.7 16.5 0.00 0.00 0.00 64 1011.1
20260905104517 55 278 7.0 19.1 0.00 0.00 0.00 65 1011.1
20260905103530 55 250 6.1 11.3 0.00 0.00 0.00 65 1011.1
20260905102529 55 260 6.1 14.8 0.00 0.00 0.00 65 1010.8
20260905101534 56 260 6.1 19.1 0.00 0.00 0.00 66 1010.7
20260905100522 56 241 7.8 15.6 0.00 0.00 0.00 68 1010.5
20260905095528 56 264 6.1 10.4 0.00 0.00 0.00 67 1010.4
20260905094534 56 281 6.1 15.6 0.00 0.00 0.00 69 1010.2
20260905093521 57 265 10.4 19.1 0.00 0.00 0.00 67 1009.9
20260905092534 56 271 6.1 14.8 0.00 0.00 0.00 69 1009.9
20260905091534 56 287 7.0 13.9 0.00 0.00 0.00 73 1009.8
20260905090518 56 267 7.0 14.8 0.00 0.00 0.00 74 1009.6
20260905085524 56 285 7.0 20.0 0.00 0.00 0.00 75 1009.4
20260905084544 56 292 7.8 13.0 0.00 0.00 0.00 76 1009.4
20260905083517 56 280 8.7 16.5 0.00 0.00 0.00 77 1009.3
20260905082530 56 275 7.0 14.8 0.00 0.00 0.00 78 1009.2
20260905081530 56 303 7.8 15.6 0.00 0.00 0.00 78 1009.2
20260905080517 55 302 8.7 16.5 0.00 0.00 0.00 78 1008.9
20260905075529 55 305 7.8 13.9 0.00 0.00 0.00 78 1009.3
20260905074529 55 297 7.0 13.9 0.00 0.00 0.00 78 1009.1
20260905073516 55 304 7.0 12.2 0.00 0.00 0.00 80 1008.9
20260905072522 55 302 7.0 17.4 0.00 0.00 0.00 82 1009.2
20260905071529 55 304 7.0 14.8 0.00 0.00 0.00 87 1009.1
20260905070550 55 283 7.0 13.0 0.00 0.00 0.00 91 1009.1
20260905065520 54 312 7.0 15.6 0.00 0.00 0.00 95 1008.8
20260905064525 54 321 5.2 12.2 0.00 0.00 0.00 94 1008.7
20260905063532 54 316 7.0 13.0 0.00 0.00 0.00 93 1008.7
20260905062517 55 322 6.1 17.4 0.00 0.00 0.00 91 1008.6
20260905061524 55 325 7.0 13.0 0.00 0.00 0.00 91 1008.7
20260905060532 55 331 6.1 13.0 0.00 0.00 0.00 92 1008.7
20260905055518 55 336 5.2 11.3 0.00 0.00 0.00 91 1008.7
20260905054524 54 342 5.2 10.4 0.00 0.00 0.00 92 1008.7
20260905053530 54 345 3.5 9.6 0.00 0.00 0.00 93 1008.9
20260905052537 54 335 2.6 9.6 0.00 0.00 0.00 94 1009.2
20260905051524 53 352 3.5 7.8 0.00 0.00 0.00 94 1009.3
20260905050529 53 351 2.6 7.8 0.00 0.00 0.00 94 1009.7
20260905045516 53 350 3.5 8.7 0.00 0.00 0.00 94 1010.2
20260905044522 53 354 3.5 7.8 0.00 0.00 0.00 93 1010.1
20260905043536 53 338 4.3 8.7 0.00 0.00 0.00 91 1010.5
20260905042534 54 322 6.1 14.8 0.00 0.00 0.00 91 1011.0
20260905041521 54 325 5.2 11.3 0.00 0.00 0.00 90 1011.4
20260905040535 54 294 5.2 9.6 0.00 0.00 0.00 89 1011.5
20260905035543 55 314 6.1 13.0 0.00 0.00 0.00 86 1011.8
20260905034522 55 289 5.2 13.9 0.00 0.00 0.00 87 1011.8
20260905033530 55 277 6.1 12.2 0.00 0.00 0.00 86 1011.9
20260905032534 56 284 7.0 16.5 0.00 0.00 0.00 84 1011.6
20260905031520 57 301 7.8 14.8 0.00 0.00 0.00 80 1012.0
20260905030542 58 312 5.2 13.0 0.00 0.00 0.00 77 1011.4
20260905025540 58 314 7.8 13.9 0.00 0.00 0.00 79 1011.4
20260905024519 58 297 7.8 15.6 0.00 0.00 0.00 78 1011.6
20260905023525 58 286 6.1 12.2 0.00 0.00 0.00 76 1011.6
20260905022520 58 290 5.2 8.7 0.00 0.00 0.00 83 1011.3
20260905021526 58 325 5.2 10.4 0.00 0.00 0.00 83 1011.3
20260905020533 57 332 4.3 11.3 0.00 0.00 0.00 84 1011.4
20260905015518 57 328 4.3 7.8 0.00 0.00 0.00 86 1011.5
20260905014524 57 345 3.5 7.0 0.00 0.00 0.00 87 1011.5
20260905013531 57 334 2.6 6.1 0.00 0.00 0.00 89 1011.9
20260905012535 56 348 2.6 6.1 0.00 0.00 0.00 90 1012.2
20260905011523 56 351 3.5 9.6 0.00 0.00 0.00 90 1012.1
20260905010529 55 335 2.6 5.2 0.00 0.00 0.00 92 1012.2
20260905005535 54 2 1.7 4.3 0.00 0.00 0.00 92 1012.4
20260905004523 54 2 2.6 5.2 0.00 0.00 0.00 93 1012.5
20260905003536 54 7 2.6 4.3 0.00 0.00 0.00 93 1012.8
20260905002517 53 2 2.6 7.0 0.00 0.00 0.00 92 1013.0
20260905001523 54 353 1.7 5.2 0.00 0.00 0.00 91 1013.5
20260905000539 54 346 1.7 5.2 0.00 0.00 0.00 90 1013.8
20260904235517 54 305 2.6 5.2 0.00 0.00 0.00 90 1013.9
20260904234523 54 334 3.5 7.0 0.00 0.00 0.00 89 1013.8
20260904233530 54 347 3.5 5.2 0.00 0.00 0.00 88 1013.4
20260904232536 53 350 2.6 5.2 0.00 0.00 0.00 90 1013.1
20260904231521 53 6 2.6 5.2 0.00 0.00 0.00 90 1013.6
20260904230528 54 360 3.5 6.1 0.00 0.00 0.00 86 1013.8
20260904225535 53 355 2.6 4.3 0.00 0.00 0.00 87 1014.1
20260904224521 53 359 3.5 6.1 0.00 0.00 0.00 87 1014.0
20260904223528 53 3 3.5 6.1 0.00 0.00 0.00 85 1014.1
20260904222534 54 357 2.6 5.2 0.00 0.00 0.00 82 1014.5
20260904221520 56 349 3.5 10.4 0.00 0.00 0.00 76 1014.6
20260904220526 55 351 2.6 5.2 0.00 0.00 0.00 78 1014.6